KC8BSD Weather Reports


Display with metric or nautical units.
time (UTC)temp
F
wind
direction
speed
MPH
gust
MPH
rain 1hr
in
rain 24hr
in
rain mn
in
humidity
%
barometer
mb
20260510213953 60 359 1.0 1.0 0.00 0.00 0.00 32 1019.7
20260510213450 61 13 3.0 6.0 0.00 0.00 0.00 33 1019.6
20260510212946 62 45 1.0 2.0 0.00 0.00 0.00 32 1019.7
20260510212443 62 222 2.0 3.0 0.00 0.00 0.00 32 1019.5
20260510211939 62 161 1.0 1.0 0.00 0.00 0.00 34 1019.5
20260510211432 62 359 3.0 5.0 0.00 0.00 0.00 31 1019.4
20260510210931 63 271 1.0 1.0 0.00 0.00 0.00 34 1019.5
20260510210427 62 327 2.0 3.0 0.00 0.00 0.00 30 1019.4
20260510205926 62 3 3.0 5.0 0.00 0.00 0.00 31 1019.4
20260510205421 62 3 1.0 2.0 0.00 0.00 0.00 33 1019.4
20260510204918 62 269 0.0 1.0 0.00 0.00 0.00 33 1019.5
20260510204414 64 263 0.0 1.0 0.00 0.00 0.00 31 1019.5
20260510203911 62 312 1.0 2.0 0.00 0.00 0.00 31 1019.1
20260510203409 62 196 2.0 2.0 0.00 0.00 0.00 30 1019.3
20260510202908 60 21 2.0 2.0 0.00 0.00 0.00 33 1019.4
20260510202404 60 280 3.0 3.0 0.00 0.00 0.00 34 1019.4
20260510201901 60 28 1.0 1.0 0.00 0.00 0.00 33 1019.5
20260510201358 60 64 2.0 2.0 0.00 0.00 0.00 31 1019.6
20260510200855 61 57 3.0 3.0 0.00 0.00 0.00 32 1019.7
20260510200354 64 24 5.0 7.0 0.00 0.00 0.00 29 1019.5
20260510195849 61 155 3.0 3.0 0.00 0.00 0.00 32 1019.9
20260510195346 59 263 2.0 3.0 0.00 0.00 0.00 32 1019.9
20260510194840 61 39 4.0 5.0 0.00 0.00 0.00 31 1019.7
20260510194337 60 316 1.0 1.0 0.00 0.00 0.00 31 1020.0
20260510193827 61 7 4.0 5.0 0.00 0.00 0.00 30 1019.7
20260510193322 59 270 0.0 0.0 0.00 0.00 0.00 34 1019.8
20260510192818 59 251 3.0 3.0 0.00 0.00 0.00 31 1019.8
20260510192313 60 29 3.0 3.0 0.00 0.00 0.00 31 1019.7
20260510191810 63 45 3.0 3.0 0.00 0.00 0.00 31 1019.8
20260510191306 62 262 1.0 2.0 0.00 0.00 0.00 30 1020.0
20260510190804 62 24 3.0 3.0 0.00 0.00 0.00 29 1019.7
20260510190301 62 263 1.0 2.0 0.00 0.00 0.00 29 1019.9
20260510185757 60 30 3.0 3.0 0.00 0.00 0.00 31 1020.0
20260510185255 60 29 1.0 2.0 0.00 0.00 0.00 32 1020.1
20260510184752 61 259 1.0 1.0 0.00 0.00 0.00 30 1019.8
20260510184248 63 266 1.0 2.0 0.00 0.00 0.00 28 1019.9
20260510183743 62 249 0.0 0.0 0.00 0.00 0.00 32 1019.8
20260510183238 64 339 3.0 5.0 0.00 0.00 0.00 28 1019.7
20260510182735 63 280 0.0 1.0 0.00 0.00 0.00 33 1019.6
20260510182231 62 251 2.0 2.0 0.00 0.00 0.00 33 1020.1
20260510181728 61 84 1.0 2.0 0.00 0.00 0.00 30 1019.8
20260510181225 63 43 7.0 10.0 0.00 0.00 0.00 29 1019.5
20260510180721 62 333 2.0 2.0 0.00 0.00 0.00 29 1019.8
20260510180219 62 20 1.0 2.0 0.00 0.00 0.00 32 1019.5
20260510175715 62 274 1.0 1.0 0.00 0.00 0.00 34 1019.6
20260510175211 60 287 2.0 2.0 0.00 0.00 0.00 28 1019.5
20260510174708 61 43 3.0 3.0 0.00 0.00 0.00 30 1019.5
20260510174205 60 45 2.0 2.0 0.00 0.00 0.00 30 1019.5
20260510173701 61 0 1.0 2.0 0.00 0.00 0.00 29 1019.5
20260510173157 60 223 2.0 2.0 0.00 0.00 0.00 34 1019.6
20260510172652 60 258 1.0 2.0 0.00 0.00 0.00 30 1019.7
20260510172149 61 38 4.0 6.0 0.00 0.00 0.00 29 1019.4
20260510171646 59 256 2.0 2.0 0.00 0.00 0.00 36 1019.8
20260510171143 60 111 3.0 3.0 0.00 0.00 0.00 30 1019.6
20260510170639 60 11 3.0 5.0 0.00 0.00 0.00 32 1019.6
20260510170136 61 330 3.0 5.0 0.00 0.00 0.00 30 1019.7
20260510165632 62 20 1.0 2.0 0.00 0.00 0.00 31 1019.7
20260510165128 59 78 2.0 2.0 0.00 0.00 0.00 34 1020.0
20260510164626 60 22 4.0 6.0 0.00 0.00 0.00 31 1019.9
20260510164122 59 272 1.0 2.0 0.00 0.00 0.00 35 1019.7
20260510163617 59 108 3.0 3.0 0.00 0.00 0.00 31 1019.7
20260510163114 58 300 2.0 2.0 0.00 0.00 0.00 32 1019.5
20260510162614 60 348 2.0 2.0 0.00 0.00 0.00 34 1019.8
20260510162110 60 16 2.0 2.0 0.00 0.00 0.00 32 1019.7
20260510161606 58 261 0.0 0.0 0.00 0.00 0.00 37 1019.5
20260510161104 59 30 3.0 5.0 0.00 0.00 0.00 35 1019.7
20260510160600 58 24 3.0 3.0 0.00 0.00 0.00 34 1019.5
20260510160100 58 53 1.0 1.0 0.00 0.00 0.00 37 1019.5
20260510155557 58 256 2.0 2.0 0.00 0.00 0.00 35 1019.6
20260510155053 58 348 3.0 3.0 0.00 0.00 0.00 35 1019.7
20260510154548 59 31 2.0 3.0 0.00 0.00 0.00 35 1019.5
20260510154044 59 55 3.0 5.0 0.00 0.00 0.00 36 1019.5
20260510153539 59 270 1.0 1.0 0.00 0.00 0.00 37 1019.3
20260510153036 57 12 1.0 2.0 0.00 0.00 0.00 38 1019.3
20260510152533 57 43 3.0 5.0 0.00 0.00 0.00 36 1019.3
20260510152030 57 311 1.0 1.0 0.00 0.00 0.00 36 1019.2
20260510151526 58 259 1.0 2.0 0.00 0.00 0.00 40 1019.1
20260510151024 58 219 2.0 5.0 0.00 0.00 0.00 37 1019.0
20260510150519 57 283 2.0 3.0 0.00 0.00 0.00 37 1019.2
20260510150015 57 340 2.0 3.0 0.00 0.00 0.00 38 1019.2
20260510145512 57 294 2.0 3.0 0.00 0.00 0.00 40 1019.2
20260510145008 57 285 1.0 1.0 0.00 0.00 0.00 39 1018.8
20260510144506 57 237 1.0 1.0 0.00 0.00 0.00 39 1018.9
20260510144001 56 105 1.0 2.0 0.00 0.00 0.00 41 1018.9
20260510143456 55 335 4.0 5.0 0.00 0.00 0.00 41 1018.8
20260510142953 57 285 1.0 1.0 0.00 0.00 0.00 41 1018.8
20260510142450 55 346 2.0 2.0 0.00 0.00 0.00 40 1018.7
20260510141947 54 16 2.0 2.0 0.00 0.00 0.00 44 1018.6
20260510141444 55 14 5.0 6.0 0.00 0.00 0.00 42 1018.7
20260510140941 55 213 3.0 3.0 0.00 0.00 0.00 48 1018.6
20260510140437 55 51 4.0 6.0 0.00 0.00 0.00 44 1018.8
20260510135936 54 249 3.0 5.0 0.00 0.00 0.00 44 1018.6
20260510135432 54 23 2.0 3.0 0.00 0.00 0.00 45 1018.5
20260510134930 54 239 1.0 2.0 0.00 0.00 0.00 45 1018.6
20260510134426 53 33 2.0 3.0 0.00 0.00 0.00 47 1018.6
20260510133922 54 65 0.0 1.0 0.00 0.00 0.00 48 1018.8
20260510133419 51 251 0.0 1.0 0.00 0.00 0.00 52 1018.7
20260510132914 52 313 2.0 3.0 0.00 0.00 0.00 46 1018.6
20260510132413 52 49 0.0 1.0 0.00 0.00 0.00 47 1018.5
20260510131909 51 281 1.0 2.0 0.00 0.00 0.00 49 1018.5
20260510131407 51 20 2.0 2.0 0.00 0.00 0.00 51 1018.6
20260510130903 51 261 0.0 0.0 0.00 0.00 0.00 51 1018.4
20260510130400 51 191 1.0 2.0 0.00 0.00 0.00 52 1018.3
20260510125857 51 285 0.0 1.0 0.00 0.00 0.00 51 1018.3
20260510125353 51 257 0.0 0.0 0.00 0.00 0.00 55 1018.1
20260510124850 50 312 2.0 2.0 0.00 0.00 0.00 52 1018.2
20260510124347 49 255 0.0 0.0 0.00 0.00 0.00 53 1018.2
20260510123842 49 266 1.0 1.0 0.00 0.00 0.00 53 1018.2
20260510123338 49 329 1.0 1.0 0.00 0.00 0.00 52 1018.0
20260510122835 49 333 1.0 1.0 0.00 0.00 0.00 54 1018.0
20260510122330 49 290 1.0 1.0 0.00 0.00 0.00 54 1018.0
20260510121827 48 273 0.0 0.0 0.00 0.00 0.00 56 1017.9
20260510121325 47 263 1.0 2.0 0.00 0.00 0.00 56 1018.1
20260510120822 48 255 1.0 1.0 0.00 0.00 0.00 58 1018.1
20260510120319 47 283 0.0 1.0 0.00 0.00 0.00 56 1018.0
20260510115814 46 258 0.0 0.0 0.00 0.00 0.00 58 1017.9
20260510115312 45 254 1.0 2.0 0.00 0.00 0.00 60 1017.9
20260510114813 44 282 0.0 0.0 0.00 0.00 0.00 65 1017.9
20260510114310 43 263 0.0 0.0 0.00 0.00 0.00 68 1017.8
20260510113805 42 269 0.0 0.0 0.00 0.00 0.00 70 1018.0
20260510113302 41 271 0.0 0.0 0.00 0.00 0.00 77 1017.7
20260510112758 39 259 0.0 0.0 0.00 0.00 0.00 80 1017.8
20260510112256 37 263 0.0 0.0 0.00 0.00 0.00 82 1017.9
20260510111751 36 264 0.0 0.0 0.00 0.00 0.00 82 1017.9
20260510111248 35 263 0.0 0.0 0.00 0.00 0.00 81 1017.5
20260510110748 35 263 0.0 0.0 0.00 0.00 0.00 81 1017.8
20260510110246 35 264 0.0 0.0 0.00 0.00 0.00 80 1017.6
20260510105746 34 264 0.0 0.0 0.00 0.00 0.00 80 1017.5
20260510105241 34 264 0.0 0.0 0.00 0.00 0.00 79 1017.7
20260510104737 34 264 0.0 0.0 0.00 0.00 0.00 79 1017.4
20260510104235 34 264 0.0 0.0 0.00 0.00 0.00 79 1017.5
20260510103731 35 264 0.0 0.0 0.00 0.00 0.00 78 1017.2
20260510103229 35 264 0.0 0.0 0.00 0.00 0.00 78 1017.0
20260510102728 35 264 0.0 0.0 0.00 0.00 0.00 77 1017.2
20260510102224 35 264 0.0 0.0 0.00 0.00 0.00 77 1017.2
20260510101722 36 264 0.0 0.0 0.00 0.00 0.00 76 1017.1
20260510101220 36 264 0.0 0.0 0.00 0.00 0.00 76 1017.1
20260510100716 37 265 0.0 0.0 0.00 0.00 0.00 76 1017.1
20260510100215 37 264 0.0 0.0 0.00 0.00 0.00 76 1017.1
20260510095710 37 264 0.0 0.0 0.00 0.00 0.00 75 1016.9
20260510095205 37 264 0.0 0.0 0.00 0.00 0.00 74 1016.9
20260510094704 38 264 0.0 0.0 0.00 0.00 0.00 72 1016.9
20260510094200 38 265 0.0 0.0 0.00 0.00 0.00 72 1016.9
20260510093655 39 268 0.0 0.0 0.00 0.00 0.00 71 1017.1
20260510093153 39 272 0.0 0.0 0.00 0.00 0.00 70 1016.5
20260510092649 40 262 0.0 0.0 0.00 0.00 0.00 68 1016.5
20260510092144 40 266 0.0 0.0 0.00 0.00 0.00 68 1016.3
20260510091641 41 268 0.0 0.0 0.00 0.00 0.00 66 1016.1
20260510091137 42 268 0.0 0.0 0.00 0.00 0.00 64 1015.7
20260510090634 42 331 1.0 2.0 0.00 0.00 0.00 64 1015.7
20260510090130 42 265 0.0 0.0 0.00 0.00 0.00 63 1015.7
20260510085625 43 259 0.0 0.0 0.00 0.00 0.00 63 1016.1
20260510085121 43 292 0.0 0.0 0.00 0.00 0.00 62 1015.8
20260510084612 43 17 2.0 2.0 0.00 0.00 0.00 62 1015.5
20260510084109 44 269 0.0 1.0 0.00 0.00 0.00 62 1015.6
20260510083605 44 327 1.0 1.0 0.00 0.00 0.00 62 1015.3
20260510083102 44 327 1.0 1.0 0.00 0.00 0.00 62 1015.3
20260510082559 44 13 2.0 3.0 0.00 0.00 0.00 62 1014.9
20260510082054 44 22 3.0 3.0 0.00 0.00 0.00 62 1015.0
20260510081549 44 301 1.0 1.0 0.00 0.00 0.00 62 1015.0
20260510081045 44 257 0.0 0.0 0.00 0.00 0.00 61 1014.8
20260510080544 45 268 0.0 1.0 0.00 0.00 0.00 61 1015.1
20260510080042 45 296 1.0 1.0 0.00 0.00 0.00 61 1014.9
20260510075539 45 272 1.0 1.0 0.00 0.00 0.00 61 1014.9
20260510075036 45 275 1.0 1.0 0.00 0.00 0.00 62 1014.7
20260510074533 45 16 1.0 2.0 0.00 0.00 0.00 63 1014.4
20260510074028 45 322 2.0 2.0 0.00 0.00 0.00 64 1014.2
20260510073524 45 271 1.0 1.0 0.00 0.00 0.00 66 1014.2
20260510073022 46 263 0.0 1.0 0.00 0.00 0.00 66 1013.8
20260510072519 46 262 0.0 0.0 0.00 0.00 0.00 65 1014.0
20260510072014 46 33 1.0 1.0 0.00 0.00 0.00 65 1014.0
20260510071510 46 256 0.0 1.0 0.00 0.00 0.00 65 1013.8
20260510071009 46 264 0.0 0.0 0.00 0.00 0.00 65 1013.8
20260510070505 46 262 0.0 0.0 0.00 0.00 0.00 64 1013.7
20260510070002 46 265 0.0 0.0 0.00 0.00 0.00 64 1013.8
20260510065458 46 265 0.0 0.0 0.00 0.00 0.00 66 1013.7
20260510064954 46 266 0.0 0.0 0.00 0.00 0.00 69 1013.8
20260510064452 46 279 0.0 0.0 0.00 0.00 0.00 67 1013.4
20260510063948 47 251 0.0 0.0 0.00 0.00 0.00 66 1013.4
20260510063444 46 257 0.0 1.0 0.00 0.00 0.00 70 1013.5
20260510062942 45 256 0.0 1.0 0.00 0.00 0.00 72 1013.3
20260510062437 44 262 0.0 0.0 0.00 0.00 0.00 76 1013.1
20260510061932 45 265 0.0 0.0 0.00 0.00 0.00 74 1013.1
20260510061430 45 267 0.0 0.0 0.00 0.00 0.00 74 1013.2
20260510060925 46 266 0.0 0.0 0.00 0.00 0.00 74 1013.0
20260510060422 46 260 0.0 0.0 0.00 0.00 0.00 73 1013.3
20260510055918 45 260 0.0 0.0 0.00 0.00 0.00 73 1013.0
20260510055414 45 261 0.0 0.0 0.00 0.00 0.00 75 1012.8
20260510054906 45 265 0.0 0.0 0.00 0.00 0.00 75 1013.0
20260510054401 45 262 0.0 0.0 0.00 0.00 0.00 75 1012.7
20260510053856 45 268 0.0 0.0 0.00 0.00 0.00 76 1012.7
20260510053353 45 268 0.0 0.0 0.00 0.00 0.00 76 1012.6
20260510052849 44 265 0.0 0.0 0.00 0.00 0.00 76 1012.4
20260510052345 44 260 0.0 0.0 0.00 0.00 0.00 75 1012.0
20260510051841 45 266 0.0 0.0 0.00 0.00 0.00 74 1012.0
20260510051338 45 266 0.0 0.0 0.00 0.00 0.00 74 1012.0
20260510050835 45 268 0.0 0.0 0.00 0.00 0.00 73 1011.8
20260510050331 46 268 0.0 0.0 0.00 0.00 0.00 72 1011.8
20260510045829 46 268 0.0 0.0 0.00 0.00 0.00 72 1011.6
20260510045325 46 268 0.0 0.0 0.00 0.00 0.00 71 1011.7
20260510044822 47 268 0.0 0.0 0.00 0.00 0.00 69 1011.6
20260510044319 48 268 0.0 0.0 0.00 0.00 0.00 68 1011.4
20260510043816 48 269 0.0 0.0 0.00 0.00 0.00 68 1011.2
20260510043312 49 269 0.0 0.0 0.00 0.00 0.00 67 1011.0
20260510042809 49 277 0.0 0.0 0.00 0.00 0.00 67 1011.2
20260510042307 49 275 0.0 0.0 0.00 0.00 0.00 67 1011.1
20260510041801 49 273 0.0 0.0 0.00 0.00 0.00 66 1011.1
20260510041259 50 271 0.0 0.0 0.00 0.00 0.00 66 1011.0
20260510040757 50 268 0.0 0.0 0.00 0.00 0.00 65 1011.1
20260510040248 50 269 0.0 0.0 0.00 0.00 0.00 64 1011.1
20260510035743 50 269 0.0 0.0 0.00 0.06 0.06 63 1010.9
20260510035239 51 264 0.0 0.0 0.00 0.06 0.06 62 1011.0
20260510034734 51 267 0.0 0.0 0.00 0.06 0.06 61 1010.9
20260510034232 51 265 0.0 0.0 0.00 0.06 0.06 61 1010.7
20260510033729 52 263 0.0 0.0 0.00 0.06 0.06 60 1010.4
20260510033227 53 269 0.0 0.0 0.00 0.06 0.06 59 1010.5
20260510032722 54 266 0.0 0.0 0.00 0.06 0.06 57 1010.4
20260510032218 54 294 0.0 1.0 0.00 0.06 0.06 56 1010.4
20260510031713 54 297 0.0 1.0 0.00 0.06 0.06 55 1010.5
20260510031210 55 283 0.0 0.0 0.00 0.06 0.06 55 1010.1
20260510030704 55 346 1.0 2.0 0.00 0.06 0.06 53 1010.1
20260510030202 55 284 0.0 1.0 0.00 0.06 0.06 55 1010.1
20260510025659 55 285 0.0 1.0 0.00 0.06 0.06 54 1010.1
20260510025156 55 281 2.0 2.0 0.00 0.06 0.06 53 1009.8
20260510024653 56 268 1.0 1.0 0.00 0.06 0.06 53 1009.7
20260510024149 56 292 1.0 1.0 0.00 0.06 0.06 52 1009.9
20260510023645 56 111 1.0 1.0 0.00 0.06 0.06 52 1009.8
20260510023143 57 314 1.0 1.0 0.00 0.06 0.06 51 1009.7
20260510022642 57 264 0.0 0.0 0.00 0.06 0.06 51 1009.5
20260510022138 57 28 3.0 3.0 0.00 0.06 0.06 49 1009.4
20260510021634 58 67 2.0 5.0 0.00 0.06 0.06 49 1009.3
20260510021132 58 334 2.0 3.0 0.00 0.06 0.06 48 1009.3
20260510020626 59 316 1.0 2.0 0.00 0.06 0.06 47 1008.9
20260510020121 59 68 3.0 3.0 0.00 0.06 0.06 47 1008.8
20260510015618 60 283 2.0 2.0 0.00 0.06 0.06 46 1008.8
20260510015114 60 279 0.0 1.0 0.00 0.06 0.06 49 1008.5
20260510014609 60 326 1.0 1.0 0.00 0.06 0.06 48 1008.2
20260510014107 61 29 3.0 3.0 0.00 0.06 0.06 48 1008.2
20260510013601 61 271 1.0 2.0 0.00 0.06 0.06 48 1007.8
20260510013058 62 259 1.0 1.0 0.00 0.06 0.06 49 1007.6
20260510012551 62 47 3.0 5.0 0.00 0.06 0.06 49 1007.5
20260510012049 62 280 0.0 1.0 0.00 0.06 0.06 50 1007.5
20260510011548 62 64 1.0 1.0 0.00 0.06 0.06 50 1007.1
20260510011044 62 311 2.0 2.0 0.00 0.06 0.06 51 1007.1
20260510010541 62 346 3.0 3.0 0.00 0.06 0.06 50 1006.7
20260510010038 62 67 1.0 1.0 0.00 0.06 0.06 52 1006.7
20260510005533 61 329 1.0 2.0 0.00 0.06 0.06 51 1006.5
20260510005031 60 34 2.0 3.0 0.00 0.06 0.06 53 1006.4
20260510004529 60 272 0.0 0.0 0.00 0.06 0.06 56 1006.4
20260510004027 60 267 0.0 0.0 0.00 0.06 0.06 55 1006.1
20260510003523 61 261 0.0 0.0 0.00 0.06 0.06 54 1006.2
20260510003019 62 261 0.0 0.0 0.00 0.06 0.06 53 1006.0
20260510002514 62 256 0.0 0.0 0.00 0.06 0.06 52 1005.9
20260510002011 63 269 0.0 0.0 0.00 0.06 0.06 50 1005.7
20260510001509 63 267 0.0 0.0 0.00 0.06 0.06 48 1005.8
20260510001007 63 259 1.0 1.0 0.00 0.06 0.06 47 1005.5
20260510000501 64 314 1.0 1.0 0.00 0.06 0.06 47 1005.8
20260509235958 64 291 2.0 2.0 0.00 0.06 0.06 47 1005.8
20260509235455 64 273 0.0 0.0 0.00 0.06 0.06 46 1005.3
20260509234951 65 329 1.0 1.0 0.00 0.06 0.06 45 1005.3
20260509234448 65 7 1.0 1.0 0.00 0.06 0.06 45 1005.3
20260509233946 65 122 2.0 3.0 0.00 0.06 0.06 44 1005.3
20260509233443 66 35 1.0 2.0 0.00 0.06 0.06 43 1005.1
20260509232939 66 33 5.0 6.0 0.00 0.06 0.06 42 1005.0
20260509232438 66 260 2.0 2.0 0.00 0.06 0.06 43 1005.2
20260509231933 67 214 3.0 6.0 0.00 0.06 0.06 42 1005.0
20260509231430 67 36 3.0 5.0 0.00 0.06 0.06 42 1005.0
20260509230928 67 73 2.0 2.0 0.00 0.06 0.06 42 1005.1
20260509230424 67 41 3.0 3.0 0.00 0.06 0.06 41 1005.0
20260509225920 68 280 1.0 1.0 0.00 0.06 0.06 40 1005.0
20260509225417 68 47 5.0 6.0 0.00 0.06 0.06 39 1005.1
20260509224913 68 270 3.0 5.0 0.00 0.06 0.06 40 1004.9
20260509224408 68 69 3.0 5.0 0.00 0.06 0.06 40 1005.1
20260509223906 68 51 4.0 6.0 0.00 0.06 0.06 40 1004.9
20260509223403 68 268 2.0 2.0 0.00 0.06 0.06 40 1004.8
20260509222900 68 52 5.0 8.0 0.00 0.06 0.06 39 1004.8
20260509222355 68 39 1.0 2.0 0.00 0.06 0.06 39 1004.9
20260509221850 68 55 3.0 3.0 0.00 0.06 0.06 38 1004.7
20260509221348 69 83 3.0 6.0 0.00 0.06 0.06 37 1004.4
20260509220843 69 81 6.0 9.0 0.00 0.06 0.06 37 1004.5
20260509220339 69 351 1.0 1.0 0.00 0.06 0.06 37 1004.6
20260509215835 70 28 3.0 5.0 0.00 0.06 0.06 36 1004.4
20260509215332 69 34 3.0 5.0 0.00 0.06 0.06 36 1004.3
20260509214829 69 28 3.0 5.0 0.00 0.06 0.06 37 1004.2
20260509214326 70 217 5.0 7.0 0.00 0.06 0.06 35 1004.0